User: anonymous   Login
Location: Nag� el Ma?a??a
(24.0667°N, 32.8833°E)
Time: 23:03:05
(UTC+00:00)
Language:

Cosmos 1486 Rocket - Orbit

View from above orbital plane
View from above orbital plane
View from above satellite
View from above satellite

Ground track
Ground track

The orbit data is extracted from the following two-line orbital elements,

1 14241U 83079B   21337.51354143  .00000143  00000-0  57933-4 0  9990
2 14241  74.0577 135.7865 0016917 166.2820 193.8796 14.36244699  6566
Epoch (UTC): 03 December 2021 12:19:29
Eccentricity: 0.0016917
inclination: 74.0577°
perigee height: 759 km
apogee height: 783 km
right ascension of ascending node: 135.7865°
argument of perigee: 166.2820°
revolutions per day: 14.36244699
mean anomaly at epoch: 193.8796°
orbit number at epoch: 656

The dashed part of the orbit path shows where the satellite is in the earth's shadow,  

DLR